Location: Star Dogged Moon Observatory
(29.7756°N, 82.0783°W)
Time: 13:58:40
(UTC-04:00)

Amateur Radio Satellites - All Passes

Search period start: 29 August 2016 13:28
Search period end: 30 August 2016 13:28
Location: Star Dogged Moon Observatory, 29.7756°N, 82.0783°W

Satellite Date Start Highest point End Downlink Frequencies (MHz)
Time Altitude Azimuth
NANOSAT C BR1 29 Aug 13:29:44 13:32:13 15° 265° (W) 13:34:43 145.865
Gurwin Techsat 1B 29 Aug 13:36:19 13:38:59 14° 66° (ENE) 13:41:39 435.225
CUBEBUG 1 29 Aug 13:43:51 13:47:52 35° 287° (WNW) 13:51:50 437.445
VELOX 1 29 Aug 13:46:35 13:50:47 41° 286° (WNW) 13:54:57 145.980
Oscar 19 29 Aug 13:47:33 13:52:24 44° 73° (ENE) 13:57:17 437.125/150
SPROUT 29 Aug 13:52:14 13:56:29 73° 283° (WNW) 14:00:43 437.525
DX 1 29 Aug 13:57:21 14:01:33 47° 286° (WNW) 14:05:45 434.975-435.025
JAS-2 29 Aug 13:58:38 14:02:48 24° 264° (W) 14:07:06 435.910
BUGSAT 1 29 Aug 14:01:58 14:04:41 17° 265° (W) 14:07:25 437.445
TISAT 1 29 Aug 14:04:57 14:08:26 25° 98° (E) 14:11:52 437.305
SRMSAT 29 Aug 14:06:27 14:11:32 30° 175° (S) 14:16:37 437.500
JUGNU 29 Aug 14:14:49 14:19:45 27° 189° (S) 14:24:39 437.505
O/OREOS (USA 219) 29 Aug 14:23:56 14:28:19 56° 290° (WNW) 14:32:46 437.305
UKube-1 29 Aug 14:34:49 14:38:11 22° 289° (WNW) 14:41:32 .
AO-85 29 Aug 14:36:53 14:40:24 27° 57° (ENE) 14:43:45 145.980
AISAT 29 Aug 14:38:46 14:39:36 10° 293° (WNW) 14:40:28 437.250
Cosmos 2499 29 Aug 14:39:15 14:44:22 18° 286° (WNW) 14:49:20 435.465 / 435.565
BEESAT 29 Aug 14:49:34 14:52:03 14° 95° (E) 14:54:33 436.000
AO-7 29 Aug 14:54:07 14:59:55 21° 60° (ENE) 15:05:41 29.400- 29.500
GONETS M04 29 Aug 14:57:04 14:59:56 12° 292° (WNW) 15:02:50
ITAMSAT 1 29 Aug 15:06:18 15:10:52 32° 71° (ENE) 15:15:26 435.822/435.867
Gurwin Techsat 1B 29 Aug 15:13:11 15:18:23 56° 259° (W) 15:23:37 435.225
Oscar 19 29 Aug 15:28:43 15:31:50 16° 265° (W) 15:34:58 437.125/150
ITUPSAT 1 29 Aug 15:36:27 15:41:06 50° 101° (E) 15:45:43 437.325
TISAT 1 29 Aug 15:40:57 15:43:50 18° 290° (WNW) 15:46:43 437.305
ISS 29 Aug 15:41:02 15:43:49 25° 40° (NE) 15:46:35 145.825
SRMSAT 29 Aug 15:55:11 16:00:16 30° 185° (S) 16:05:21 437.500
JUGNU 29 Aug 16:04:53 16:08:13 15° 197° (SSW) 16:11:32 437.505
SWISSCUBE 29 Aug 16:08:23 16:13:04 59° 285° (WNW) 16:17:45 437.505
AO-85 29 Aug 16:18:01 16:20:30 16° 252° (WSW) 16:22:55 145.980
MOZHAYETS 4 29 Aug 16:21:40 16:25:02 20° 96° (E) 16:28:24
BEESAT 29 Aug 16:25:28 16:29:56 42° 287° (WNW) 16:34:25 436.000
AO-7 29 Aug 16:43:32 16:51:51 71° 255° (WSW) 17:00:12 29.400- 29.500
ITAMSAT 1 29 Aug 16:46:19 16:50:17 22° 263° (W) 16:54:16 435.822/435.867
YUBILEINY 29 Aug 17:00:50 17:07:07 21° 73° (ENE) 17:13:20 435.215
ITUPSAT 1 29 Aug 17:16:21 17:18:26 13° 293° (WNW) 17:20:31 437.325
ISS 29 Aug 17:17:44 17:20:07 19° 233° (SW) 17:22:30 145.825
BRITE-PL 29 Aug 17:26:17 17:29:03 15° 66° (ENE) 17:31:55 437.365/2234.400
KKS-1 29 Aug 17:36:54 17:41:20 67° 285° (WNW) 17:45:43 437.445
SRMSAT 29 Aug 17:44:46 17:48:56 20° 194° (SSW) 17:53:06 437.500
CUBESAT XI-V 29 Aug 17:47:09 17:50:42 21° 96° (E) 17:54:14 437.345
HORYU 2 29 Aug 17:50:51 17:55:19 83° 77° (ENE) 17:59:47 437.375
Cubesat XI-IV 29 Aug 17:52:14 17:54:50 14° 66° (ENE) 17:57:27 437.490
Cosmos 2504 29 Aug 17:54:34 17:56:41 11° 70° (ENE) 17:58:47 435.465 / 435.565
NOAA 15 29 Aug 17:56:28 18:00:16 21° 68° (ENE) 18:04:04 137.62
MOZHAYETS 4 29 Aug 17:58:14 18:02:07 28° 288° (WNW) 18:06:00
CUTE-I 29 Aug 18:02:23 18:05:55 18° 68° (ENE) 18:09:26 437.470
STARS 29 Aug 18:07:06 18:11:26 63° 284° (WNW) 18:15:44 437.465
DOVE 4 29 Aug 18:26:14 18:28:29 13° 66° (ENE) 18:30:44 437.250
GOMX 1 29 Aug 18:27:44 18:32:09 31° 71° (ENE) 18:36:47 467.674
Cosmos 2491 29 Aug 18:29:35 18:38:02 59° 91° (E) 18:46:33 435.465 / 435.565
LilacSat-2 29 Aug 18:42:07 18:45:42 39° 75° (ENE) 18:49:17 437.200
BEESAT 3 29 Aug 18:48:00 18:51:22 26° 58° (ENE) 18:54:44 437.485
YUBILEINY 29 Aug 18:55:48 19:04:23 63° 268° (W) 19:12:54 435.215
NOAA 18 29 Aug 18:58:10 19:03:38 62° 74° (ENE) 19:09:05 137.9125
BRITE-PL 29 Aug 19:02:27 19:06:57 45° 262° (W) 19:11:53 437.365/2234.400
CUBESAT XI-V 29 Aug 19:23:59 19:27:59 28° 288° (WNW) 19:31:59 437.345
Cubesat XI-IV 29 Aug 19:29:07 19:34:21 57° 258° (WSW) 19:39:37 437.490
NOAA 15 29 Aug 19:34:55 19:39:43 37° 261° (W) 19:44:33 137.62
CUTE-I 29 Aug 19:40:31 19:45:34 43° 260° (W) 19:50:37 437.470
Cosmos 2504 29 Aug 19:43:36 19:50:47 83° 265° (W) 19:58:01 435.465 / 435.565
STRAND 1 29 Aug 19:58:32 20:02:46 26° 97° (E) 20:06:59 437.568
DOVE 4 29 Aug 20:00:28 20:05:30 61° 260° (W) 20:10:44 437.250
GOMX 1 29 Aug 20:06:13 20:10:09 23° 266° (W) 20:14:18 467.674
SEEDS 29 Aug 20:08:54 20:11:41 18° 71° (ENE) 20:14:28 437.485
BEESAT 2 29 Aug 20:11:25 20:15:21 57° 245° (WSW) 20:19:15 435.950
AIST 1 29 Aug 20:18:34 20:21:31 17° 77° (ENE) 20:24:25
HO-68 29 Aug 20:19:33 20:26:32 57° 71° (ENE) 20:33:32 435.675
CINEMA 3 29 Aug 20:25:17 20:30:15 66° 76° (ENE) 20:35:12 145.822/145.860
BEESAT 3 29 Aug 20:26:11 20:28:48 17° 251° (WSW) 20:31:24 437.485
Cosmos 2491 29 Aug 20:28:41 20:35:14 23° 287° (WNW) 20:41:51 435.465 / 435.565
CUBEBUG 2 29 Aug 20:30:19 20:33:29 18° 71° (ENE) 20:36:38 437.445
CANX-2 29 Aug 20:33:26 20:37:36 67° 77° (ENE) 20:41:45 2200.000
AAUSAT CUBESAT 2 29 Aug 20:33:35 20:36:23 18° 71° (ENE) 20:39:10 437.432
CUTE 1.7 + AOD 2 29 Aug 20:39:05 20:43:14 67° 78° (ENE) 20:47:25 437.475
NOAA 18 29 Aug 20:42:20 20:44:34 12° 266° (W) 20:46:47 137.9125
COMPASS 1 29 Aug 20:42:58 20:46:35 31° 73° (ENE) 20:50:13 437.405
AIST 2 29 Aug 21:04:58 21:07:38 16° 54° (NE) 21:10:18 435.215
PRISM 29 Aug 21:18:47 21:21:24 16° 96° (E) 21:24:00 437.425
PCSat 29 Aug 21:24:06 21:29:10 39° 61° (ENE) 21:34:12 145.827
Oscar 11 29 Aug 21:34:33 21:38:32 38° 74° (ENE) 21:42:31 145.826/435.025
STRAND 1 29 Aug 21:37:33 21:41:48 27° 290° (WNW) 21:46:02 437.568
SEEDS 29 Aug 21:43:40 21:47:08 26° 263° (W) 21:50:38 437.485
FUNcube-1 29 Aug 21:44:49 21:49:07 49° 75° (ENE) 21:53:20 145.935
DELFI C3 29 Aug 21:52:52 21:55:55 22° 72° (ENE) 21:58:59 145.870
AIST 1 29 Aug 21:55:22 21:59:02 27° 270° (W) 22:02:42
UWE-3 29 Aug 21:58:00 22:02:32 62° 259° (W) 22:07:00 435.000/436.395/437.385
CUBEBUG 2 29 Aug 22:05:36 22:09:49 33° 262° (W) 22:13:59 437.445
ZACube-1 29 Aug 22:07:24 22:11:53 79° 258° (WSW) 22:16:17 437.345
AAUSAT CUBESAT 2 29 Aug 22:08:16 22:11:38 25° 263° (W) 22:15:01 437.432
HO-68 29 Aug 22:09:21 22:14:28 21° 264° (W) 22:19:37 435.675
COMPASS 1 29 Aug 22:19:58 22:22:09 14° 265° (W) 22:24:21 437.405
M-CUBED/EXP-1 PRIME 29 Aug 22:29:33 22:31:11 12° 62° (ENE) 22:32:49 437.505
HUMSAT D 29 Aug 22:34:08 22:37:55 34° 74° (ENE) 22:41:40 437.325/437.525
AIST 2 29 Aug 22:42:23 22:46:10 33° 248° (WSW) 22:49:56 435.215
Cosmos 2499 29 Aug 22:44:14 22:47:06 13° 71° (ENE) 22:49:59 435.465 / 435.565
UNISAT 6 29 Aug 22:49:05 22:51:51 17° 95° (E) 22:54:36 437.425
PRISM 29 Aug 22:53:03 22:56:40 28° 287° (WNW) 23:00:15 437.425
SO-50 29 Aug 23:05:22 23:10:02 47° 113° (ESE) 23:14:41 436.795
PCSat 29 Aug 23:08:20 23:12:12 20° 255° (WSW) 23:16:03 145.827
GONETS M04 29 Aug 23:11:33 23:19:37 38° 78° (ENE) 23:27:35
Oscar 11 29 Aug 23:12:55 23:14:44 12° 266° (W) 23:16:34 145.826/435.025
ANTELSAT 29 Aug 23:24:47 23:28:54 48° 100° (E) 23:33:00 437.575/2403.000
FUNcube-1 29 Aug 23:24:54 23:25:29 10° 266° (W) 23:26:03 145.935
DELFI C3 29 Aug 23:27:56 23:30:39 18° 264° (W) 23:33:22 145.870
50 SAT 29 Aug 23:39:28 23:40:24 11° 70° (ENE) 23:41:22 437.505
AISAT 29 Aug 23:51:18 23:54:45 22° 71° (ENE) 23:58:13 437.250
ESTCUBE 1 29 Aug 23:52:04 23:56:18 43° 74° (ENE) 00:00:33 437.505/2401.250
AUBIESAT-1 29 Aug 23:52:44 23:57:20 87° 76° (ENE) 00:02:00 437.475
TIGRISAT 29 Aug 23:54:56 23:59:11 72° 283° (WNW) 00:03:24 435.000
M-CUBED/EXP-1 PRIME 30 Aug 00:00:31 00:05:06 61° 255° (WSW) 00:09:46 437.505
PHONESAT 2.4 30 Aug 00:02:15 00:04:57 30° 144° (SE) 00:07:39 2401.200-2431.200
DANDE 30 Aug 00:07:35 00:09:19 16° 92° (E) 00:11:05 436.750
HUMSAT D 30 Aug 00:11:39 00:13:33 13° 265° (W) 00:15:28 437.325/437.525
RS-15 30 Aug 00:18:39 00:28:18 34° 104° (ESE) 00:38:19 29.354- 29.394
UNISAT 6 30 Aug 00:24:55 00:28:32 28° 287° (WNW) 00:32:09 437.425
QB50P1 30 Aug 00:28:21 00:32:07 32° 98° (E) 00:35:52 145.935-145.965
CUSAT 1 30 Aug 00:29:17 00:31:37 23° 285° (WNW) 00:34:21 437.405
CUBEBUG 1 30 Aug 00:33:00 00:37:22 87° 82° (E) 00:41:49 437.445
Cosmos 2499 30 Aug 00:33:44 00:40:47 77° 266° (W) 00:48:04 435.465 / 435.565
VELOX 1 30 Aug 00:37:16 00:41:40 78° 78° (ENE) 00:46:08 145.980
POPSAT HIP 1 30 Aug 00:38:25 00:42:25 42° 99° (E) 00:46:22 437.405
SPROUT 30 Aug 00:39:41 00:43:38 37° 74° (ENE) 00:47:37 437.525
O/OREOS (USA 219) 30 Aug 00:39:45 00:44:22 82° 252° (WSW) 00:48:56 437.305
DX 1 30 Aug 00:46:23 00:50:42 65° 75° (ENE) 00:55:02 434.975-435.025
SO-50 30 Aug 00:47:38 00:50:43 16° 307° (NW) 00:53:46 436.795
DUCHIFAT 1 30 Aug 01:03:02 01:07:14 81° 103° (ESE) 01:11:23 145.980
ANTELSAT 30 Aug 01:04:45 01:05:07 10° 293° (WNW) 01:05:29 437.575/2403.000
GONETS M04 30 Aug 01:08:21 01:16:13 38° 273° (W) 01:24:05
QB50P2 30 Aug 01:09:18 01:13:29 66° 284° (WNW) 01:17:38 145.880/145.840
50 SAT 30 Aug 01:10:29 01:13:39 29° 262° (W) 01:16:49 437.505
JAS-2 30 Aug 01:10:36 01:17:39 55° 101° (E) 01:25:13 435.910
POLYITAN 1 30 Aug 01:11:49 01:15:59 65° 284° (WNW) 01:20:07 437.675
NANOSAT C BR1 30 Aug 01:18:09 01:22:16 58° 284° (WNW) 01:26:21 145.865
UKube-1 30 Aug 01:22:14 01:26:28 57° 259° (W) 01:30:44 .
AISAT 30 Aug 01:27:28 01:31:03 24° 263° (W) 01:34:39 437.250
ESTCUBE 1 30 Aug 01:31:32 01:33:14 12° 266° (W) 01:34:56 437.505/2401.250
PHONESAT 2.4 30 Aug 01:38:35 01:41:16 29° 337° (NNW) 01:43:58 2401.200-2431.200
BUGSAT 1 30 Aug 01:48:09 01:52:14 69° 283° (WNW) 01:56:14 437.445
QB50P1 30 Aug 02:05:12 02:07:34 15° 291° (WNW) 02:09:56 145.935-145.965
Oscar 19 30 Aug 02:05:37 02:09:54 26° 97° (E) 02:14:08 437.125/150
POPSAT HIP 1 30 Aug 02:16:26 02:17:44 11° 292° (WNW) 02:19:03 437.405
SPROUT 30 Aug 02:17:36 02:19:38 13° 266° (W) 02:21:41 437.525
TISAT 1 30 Aug 02:25:06 02:29:15 55° 259° (W) 02:33:26 437.305
RS-15 30 Aug 02:28:49 02:39:59 58° 302° (WNW) 02:51:49 29.354- 29.394
ITUPSAT 1 30 Aug 02:37:37 02:41:42 29° 71° (ENE) 02:45:47 437.325
JAS-2 30 Aug 02:56:40 03:02:13 25° 292° (WNW) 03:08:07 435.910
SWISSCUBE 30 Aug 03:08:31 03:13:15 79° 77° (ENE) 03:18:00 437.505
PHONESAT 2.4 30 Aug 03:17:02 03:18:13 12° 353° (N) 03:19:23 2401.200-2431.200
BEESAT 30 Aug 03:25:21 03:30:06 75° 258° (WSW) 03:34:51 436.000
ITAMSAT 1 30 Aug 03:25:50 03:29:25 19° 96° (E) 03:33:00 435.822/435.867
Gurwin Techsat 1B 30 Aug 03:35:24 03:40:44 84° 284° (WNW) 03:46:03 435.225
Oscar 19 30 Aug 03:44:42 03:49:05 28° 289° (WNW) 03:53:28 437.125/150
ITUPSAT 1 30 Aug 04:15:56 04:19:28 21° 264° (W) 04:23:00 437.325
KKS-1 30 Aug 04:28:39 04:33:00 51° 75° (ENE) 04:37:21 437.445
AO-85 30 Aug 04:43:35 04:48:43 46° 113° (ESE) 04:53:39 145.980
CUBESAT XI-V 30 Aug 04:47:32 04:48:08 10° 67° (ENE) 04:48:43 437.345
Cosmos 2491 30 Aug 04:48:53 04:55:10 21° 72° (ENE) 05:01:26 435.465 / 435.565
RS-15 30 Aug 04:49:53 04:55:52 15° 329° (NNW) 05:02:02 29.354- 29.394
AO-7 30 Aug 04:52:03 05:00:13 60° 104° (ESE) 05:08:20 29.400- 29.500
MOZHAYETS 4 30 Aug 04:53:15 04:57:45 60° 260° (W) 05:02:15
PHONESAT 2.4 30 Aug 04:53:54 04:55:24 13° 10° (N) 04:56:55 2401.200-2431.200
STARS 30 Aug 04:57:24 05:01:41 50° 75° (ENE) 05:05:59 437.465
ITAMSAT 1 30 Aug 05:04:10 05:08:55 38° 288° (WNW) 05:13:40 435.822/435.867
HORYU 2 30 Aug 05:48:21 05:51:57 25° 97° (E) 05:55:34 437.375
YUBILEINY 30 Aug 05:53:38 06:01:00 31° 86° (E) 06:08:21 435.215
KKS-1 30 Aug 06:09:23 06:09:45 10° 266° (W) 06:10:07 437.445
NOAA 15 30 Aug 06:18:52 06:20:53 12° 94° (E) 06:22:55 137.62
CUBESAT XI-V 30 Aug 06:20:27 06:24:57 57° 260° (W) 06:29:30 437.345
Cosmos 2504 30 Aug 06:25:29 06:29:17 14° 83° (E) 06:32:58 435.465 / 435.565
AO-85 30 Aug 06:25:31 06:29:19 20° 305° (NW) 06:33:01 145.980
CUTE-I 30 Aug 06:27:05 06:28:19 11° 93° (E) 06:29:32 437.470
PHONESAT 2.4 30 Aug 06:29:23 06:32:14 41° 26° (NNE) 06:35:05 2401.200-2431.200
GOMX 1 30 Aug 06:37:09 06:40:11 16° 92° (E) 06:43:07 467.674
ISS 30 Aug 06:41:26 06:43:00 13° 125° (SE) 06:44:34 145.825
Cosmos 2491 30 Aug 06:43:48 06:52:31 65° 268° (W) 07:01:12 435.465 / 435.565
AO-7 30 Aug 06:46:01 06:52:22 25° 299° (WNW) 06:58:43 29.400- 29.500
STRAND 1 30 Aug 07:09:06 07:12:50 21° 69° (ENE) 07:16:33 437.568
BRITE-PL 30 Aug 07:12:50 07:18:31 85° 283° (WNW) 07:23:56 437.365/2234.400
HORYU 2 30 Aug 07:25:01 07:28:19 21° 290° (WNW) 07:31:38 437.375
NOAA 18 30 Aug 07:26:35 07:31:47 44° 100° (E) 07:36:56 137.9125
YUBILEINY 30 Aug 07:49:01 07:57:21 46° 281° (W) 08:05:45 435.215
Cubesat XI-IV 30 Aug 07:52:23 07:57:42 85° 286° (WNW) 08:03:01 437.490
LilacSat-2 30 Aug 07:55:16 07:58:56 53° 284° (WNW) 08:02:36 437.200
NOAA 15 30 Aug 07:55:41 08:00:55 59° 286° (WNW) 08:06:07 137.62
HO-68 30 Aug 07:56:56 08:00:06 13° 93° (E) 08:03:16 435.675
CUTE-I 30 Aug 08:03:24 08:08:40 65° 285° (WNW) 08:13:55 437.470
DOVE 4 30 Aug 08:06:06 08:10:56 62° 100° (E) 08:15:28 437.250
PHONESAT 2.4 30 Aug 08:06:13 08:08:25 19° 218° (SW) 08:10:36 2401.200-2431.200
Cosmos 2504 30 Aug 08:13:09 08:21:45 84° 275° (W) 08:29:46 435.465 / 435.565
GOMX 1 30 Aug 08:13:27 08:18:28 45° 286° (WNW) 08:23:11 467.674
ISS 30 Aug 08:16:09 08:19:11 35° 318° (NW) 08:22:14 145.825
CANX-2 30 Aug 08:25:19 08:28:17 18° 96° (E) 08:31:15 2200.000
CINEMA 3 30 Aug 08:27:24 08:30:50 23° 96° (E) 08:34:10 145.822/145.860
CUTE 1.7 + AOD 2 30 Aug 08:30:52 08:33:49 18° 96° (E) 08:36:47 437.475
BEESAT 3 30 Aug 08:33:24 08:36:09 19° 110° (ESE) 08:38:56 437.485
JUGNU 30 Aug 08:36:07 08:39:01 14° 162° (SSE) 08:41:55 437.505
AIST 1 30 Aug 08:42:29 08:44:35 13° 87° (E) 08:46:41
STRAND 1 30 Aug 08:47:07 08:51:43 34° 261° (W) 08:56:20 437.568
NOAA 18 30 Aug 09:08:22 09:12:02 19° 293° (WNW) 09:15:41 137.9125
SO-50 30 Aug 09:22:49 09:27:21 81° 246° (WSW) 09:31:47 436.795
CUSAT 1 30 Aug 09:25:39 09:28:49 13° 72° (ENE) 09:32:06 437.405
RS-15 30 Aug 09:26:48 09:36:32 26° 44° (NE) 09:46:04 29.354- 29.394
Oscar 11 30 Aug 09:29:53 09:31:15 11° 94° (E) 09:32:36 145.826/435.025
SEEDS 30 Aug 09:32:32 09:36:46 79° 103° (ESE) 09:40:59 437.485
PRISM 30 Aug 09:35:41 09:39:45 86° 73° (ENE) 09:43:52 437.425
FUNcube-1 30 Aug 09:40:25 09:42:32 14° 95° (E) 09:44:39 145.935
HO-68 30 Aug 09:41:10 09:48:20 80° 285° (WNW) 09:55:28 435.675
DOVE 4 30 Aug 09:47:27 09:47:54 10° 295° (WNW) 09:48:21 437.250
UWE-3 30 Aug 09:53:56 09:57:49 39° 99° (E) 10:01:41 435.000/436.395/437.385
AAUSAT CUBESAT 2 30 Aug 09:55:27 09:59:37 77° 100° (E) 10:03:47 437.432
BEESAT 2 30 Aug 09:57:17 10:01:12 75° 297° (WNW) 10:05:09 435.950
CANX-2 30 Aug 10:00:32 10:04:03 26° 287° (WNW) 10:07:35 2200.000
CUBEBUG 2 30 Aug 10:02:10 10:06:21 85° 102° (ESE) 10:10:29 437.445
ZACube-1 30 Aug 10:02:12 10:05:49 29° 98° (E) 10:09:26 437.345
CINEMA 3 30 Aug 10:04:32 10:07:49 21° 289° (WNW) 10:11:01 145.822/145.860
CUTE 1.7 + AOD 2 30 Aug 10:06:03 10:09:34 26° 287° (WNW) 10:13:06 437.475
COMPASS 1 30 Aug 10:06:27 10:10:34 56° 284° (WNW) 10:14:40 437.405
BEESAT 3 30 Aug 10:10:26 10:13:37 23° 303° (WNW) 10:16:49 437.485
Cosmos 2504 30 Aug 10:13:32 10:15:54 11° 290° (WNW) 10:18:14 435.465 / 435.565
AIST 1 30 Aug 10:17:51 10:21:46 34° 279° (W) 10:25:45
ANTELSAT 30 Aug 10:18:04 10:21:36 22° 71° (ENE) 10:25:05 437.575/2403.000
PCSat 30 Aug 10:20:13 10:21:49 11° 103° (ESE) 10:23:26 145.827
JUGNU 30 Aug 10:22:39 10:27:30 26° 170° (S) 10:32:21 437.505
DANDE 30 Aug 10:46:48 10:51:53 25° 79° (E) 10:57:51 436.750
TIGRISAT 30 Aug 10:47:10 10:51:35 46° 75° (ENE) 10:55:54 435.000
AIST 2 30 Aug 10:57:48 10:59:39 13° 108° (ESE) 11:01:30 435.215
Oscar 11 30 Aug 11:03:25 11:07:30 42° 285° (WNW) 11:11:34 145.826/435.025
CUSAT 1 30 Aug 11:04:02 11:11:13 86° 83° (E) 11:19:16 437.405
DELFI C3 30 Aug 11:09:49 11:13:50 87° 101° (E) 11:17:52 145.870
Cosmos 2499 30 Aug 11:14:17 11:18:00 14° 83° (E) 11:21:36 435.465 / 435.565
FUNcube-1 30 Aug 11:15:09 11:18:48 31° 287° (WNW) 11:22:28 145.935
UNISAT 6 30 Aug 11:16:33 11:21:10 71° 259° (W) 11:25:42 437.425
QB50P1 30 Aug 11:16:57 11:18:32 12° 68° (ENE) 11:20:06 145.935-145.965
POPSAT HIP 1 30 Aug 11:26:14 11:28:46 16° 70° (ENE) 11:31:18 437.405
UWE-3 30 Aug 11:32:25 11:33:53 12° 291° (WNW) 11:35:19 435.000/436.395/437.385
HO-68 30 Aug 11:33:15 11:34:54 11° 302° (WNW) 11:36:32 435.675
RS-15 30 Aug 11:38:09 11:50:35 86° 246° (WSW) 12:02:36 29.354- 29.394
ZACube-1 30 Aug 11:39:24 11:41:49 15° 290° (WNW) 11:44:16 437.345
M-CUBED/EXP-1 PRIME 30 Aug 11:47:57 11:50:04 14° 98° (E) 11:52:06 437.505
DUCHIFAT 1 30 Aug 11:49:15 11:52:47 26° 72° (ENE) 11:56:20 145.980
ESTCUBE 1 30 Aug 11:51:47 11:54:26 15° 95° (E) 11:57:05 437.505/2401.250
ANTELSAT 30 Aug 11:54:17 11:58:07 26° 263° (W) 12:01:53 437.575/2403.000
QB50P2 30 Aug 11:55:46 11:59:45 39° 74° (ENE) 12:03:44 145.880/145.840
POLYITAN 1 30 Aug 11:58:14 12:02:15 40° 74° (ENE) 12:06:15 437.675
HUMSAT D 30 Aug 11:58:27 12:02:24 50° 284° (WNW) 12:06:23 437.325/437.525
PCSat 30 Aug 11:59:12 12:04:34 66° 295° (WNW) 12:09:58 145.827
NANOSAT C BR1 30 Aug 12:03:59 12:08:01 44° 75° (ENE) 12:12:04 145.865
GONETS M04 30 Aug 12:04:28 12:12:49 52° 90° (E) 12:21:14
SRMSAT 30 Aug 12:05:31 12:09:55 21° 167° (SSE) 12:14:19 437.500
JUGNU 30 Aug 12:10:51 12:16:05 32° 180° (S) 12:21:18 437.505
TIGRISAT 30 Aug 12:26:38 12:28:22 12° 266° (W) 12:30:05 435.000
CUBEBUG 1 30 Aug 12:28:09 12:31:50 26° 97° (E) 12:35:29 437.445
DANDE 30 Aug 12:28:29 12:34:32 48° 265° (W) 12:41:56 436.750
BUGSAT 1 30 Aug 12:31:42 12:35:32 34° 73° (ENE) 12:39:23 437.445
AIST 2 30 Aug 12:33:57 12:37:44 37° 301° (WNW) 12:41:34 435.215
VELOX 1 30 Aug 12:34:00 12:37:36 24° 97° (E) 12:41:09 145.980
DX 1 30 Aug 12:41:35 12:44:36 18° 96° (E) 12:47:36 434.975-435.025
50 SAT 30 Aug 12:44:15 12:47:28 29° 98° (E) 12:50:42 437.505
CUSAT 1 30 Aug 12:49:00 12:52:39 14° 273° (W) 12:56:26 437.405
QB50P1 30 Aug 12:49:49 12:53:52 42° 261° (W) 12:57:56 145.935-145.965
POPSAT HIP 1 30 Aug 13:00:24 13:04:13 32° 262° (W) 13:08:04 437.405
Cosmos 2499 30 Aug 13:01:59 13:10:17 80° 275° (W) 13:17:58 435.465 / 435.565
JAS-2 30 Aug 13:02:22 13:07:32 89° 81° (E) 13:12:59 435.910
O/OREOS (USA 219) 30 Aug 13:07:42 13:11:15 23° 102° (ESE) 13:14:48 437.305
AUBIESAT-1 30 Aug 13:12:40 13:16:17 41° 290° (WNW) 13:19:38 437.475
UKube-1 30 Aug 13:15:24 13:19:24 36° 99° (E) 13:23:21 .
Oscar 19 30 Aug 13:17:05 13:20:51 21° 69° (ENE) 13:24:38 437.125/150
M-CUBED/EXP-1 PRIME 30 Aug 13:21:23 13:24:37 25° 293° (WNW) 13:27:38 437.505
